| time (UTC) | temp F | wind direction | speed MPH | gust MPH | rain 1hr in | rain 24hr in | rain mn in | humidity % | barometer mb |
| 20260904065150 | 90 | 0.0 | 0.0 | 0.00 | 0.00 | 0.00 | 41 | 1010.0 | |
| 20260904064150 | 90 | 0.0 | 0.0 | 0.00 | 0.00 | 0.00 | 41 | 1009.7 | |
| 20260904063149 | 90 | 0.0 | 0.0 | 0.00 | 0.00 | 0.00 | 41 | 1010.0 | |
| 20260904062117 | 90 | 0.0 | 0.0 | 0.00 | 0.00 | 0.00 | 40 | 1009.6 | |
| 20260904061116 | 90 | 0.0 | 0.0 | 0.00 | 0.00 | 0.00 | 40 | 1009.6 | |
| 20260904060114 | 90 | 0.0 | 0.0 | 0.00 | 0.00 | 0.00 | 40 | 1009.6 | |
| 20260904055114 | 91 | 0.0 | 0.0 | 0.00 | 0.00 | 0.00 | 39 | 1009.6 | |
| 20260904054112 | 91 | 0.0 | 0.0 | 0.00 | 0.00 | 0.00 | 39 | 1009.6 | |
| 20260904053111 | 91 | 0.0 | 0.0 | 0.00 | 0.00 | 0.00 | 38 | 1009.6 | |
| 20260904052110 | 91 | 0.0 | 0.0 | 0.00 | 0.00 | 0.00 | 37 | 1009.6 | |
| 20260904051109 | 92 | 0.0 | 0.0 | 0.00 | 0.00 | 0.00 | 36 | 1009.6 | |
| 20260904044319 | 92 | 0.0 | 0.0 | 0.00 | 0.00 | 0.00 | 35 | 1009.5 | |
| 20260904043318 | 92 | 0.0 | 0.0 | 0.00 | 0.00 | 0.00 | 35 | 1009.5 | |
| 20260904042318 | 93 | 0.0 | 0.0 | 0.00 | 0.00 | 0.00 | 34 | 1009.6 | |
| 20260904041317 | 93 | 0.0 | 0.0 | 0.00 | 0.00 | 0.00 | 33 | 1009.2 | |
| 20260904040316 | 93 | 0.0 | 0.0 | 0.00 | 0.00 | 0.00 | 33 | 1009.2 | |
| 20260904035244 | 92 | 0.0 | 0.0 | 0.00 | 0.00 | 0.00 | 34 | 1009.1 | |
| 20260904034212 | 93 | 0.0 | 0.0 | 0.00 | 0.00 | 0.00 | 35 | 1008.8 | |
| 20260904033211 | 92 | 0.0 | 0.0 | 0.00 | 0.00 | 0.00 | 35 | 1008.8 | |
| 20260904032210 | 92 | 0.0 | 0.0 | 0.00 | 0.00 | 0.00 | 35 | 1008.8 | |
| 20260904031209 | 92 | 0.0 | 0.0 | 0.00 | 0.00 | 0.00 | 36 | 1008.4 | |
| 20260904030208 | 92 | 0.0 | 0.0 | 0.00 | 0.00 | 0.00 | 36 | 1008.1 | |
| 20260904025207 | 92 | 0.0 | 0.0 | 0.00 | 0.00 | 0.00 | 37 | 1008.0 | |
| 20260904024206 | 92 | 0.0 | 0.0 | 0.00 | 0.00 | 0.00 | 37 | 1008.0 | |
| 20260904023205 | 92 | 0.0 | 0.0 | 0.00 | 0.00 | 0.00 | 36 | 1008.0 | |
| 20260904022204 | 93 | 0.0 | 0.0 | 0.00 | 0.00 | 0.00 | 36 | 1008.0 | |
| 20260904021203 | 94 | 0.0 | 0.0 | 0.00 | 0.00 | 0.00 | 35 | 1008.0 | |
| 20260904020202 | 95 | 0.0 | 0.0 | 0.00 | 0.00 | 0.00 | 33 | 1008.0 | |
| 20260904015130 | 95 | 0.0 | 0.0 | 0.00 | 0.00 | 0.00 | 33 | 1008.0 | |
| 20260904014129 | 96 | 0.0 | 0.0 | 0.00 | 0.00 | 0.00 | 33 | 1008.0 | |
| 20260904013128 | 97 | 0.0 | 0.0 | 0.00 | 0.00 | 0.00 | 32 | 1008.0 | |
| 20260904012056 | 98 | 0.0 | 0.0 | 0.00 | 0.00 | 0.00 | 31 | 1008.0 | |
| 20260904011055 | 101 | 0.0 | 0.0 | 0.00 | 0.00 | 0.00 | 28 | 1008.2 | |
| 20260904010054 | 101 | 0.0 | 0.0 | 0.00 | 0.00 | 0.00 | 27 | 1007.8 | |
| 20260904005053 | 102 | 0.0 | 0.0 | 0.00 | 0.00 | 0.00 | 27 | 1007.9 | |
| 20260904004053 | 101 | 0.0 | 0.0 | 0.00 | 0.00 | 0.00 | 27 | 1007.8 | |
| 20260904003052 | 101 | 0.0 | 0.0 | 0.00 | 0.00 | 0.00 | 27 | 1007.8 | |
| 20260904002020 | 101 | 0.0 | 0.0 | 0.00 | 0.00 | 0.00 | 26 | 1007.8 | |
| 20260904001019 | 102 | 0.0 | 0.0 | 0.00 | 0.00 | 0.00 | 26 | 1007.9 | |
| 20260904000018 | 103 | 0.0 | 0.0 | 0.00 | 0.00 | 0.00 | 25 | 1007.9 | |
| 20260903235018 | 102 | 0.0 | 0.0 | 0.00 | 0.00 | 0.00 | 25 | 1007.9 | |
| 20260903234017 | 102 | 0.0 | 0.0 | 0.00 | 0.00 | 0.00 | 26 | 1007.9 | |
| 20260903233016 | 102 | 0.0 | 0.0 | 0.00 | 0.00 | 0.00 | 25 | 1008.2 | |
| 20260903232015 | 102 | 0.0 | 0.0 | 0.00 | 0.00 | 0.00 | 25 | 1008.2 | |
| 20260903230912 | 102 | 0.0 | 0.0 | 0.00 | 0.00 | 0.00 | 25 | 1008.3 | |
| 20260903225911 | 104 | 0.0 | 0.0 | 0.00 | 0.00 | 0.00 | 24 | 1008.3 | |
| 20260903224911 | 104 | 0.0 | 0.0 | 0.00 | 0.00 | 0.00 | 24 | 1008.3 | |
| 20260903223910 | 105 | 0.0 | 0.0 | 0.00 | 0.00 | 0.00 | 24 | 1008.7 | |
| 20260903222909 | 105 | 0.0 | 0.0 | 0.00 | 0.00 | 0.00 | 24 | 1008.7 | |
| 20260903221908 | 104 | 0.0 | 0.0 | 0.00 | 0.00 | 0.00 | 24 | 1008.7 | |
| 20260903220907 | 104 | 0.0 | 0.0 | 0.00 | 0.00 | 0.00 | 24 | 1009.1 | |
| 20260903215907 | 104 | 0.0 | 0.0 | 0.00 | 0.00 | 0.00 | 24 | 1009.4 | |
| 20260903214906 | 104 | 0.0 | 0.0 | 0.00 | 0.00 | 0.00 | 24 | 1009.4 | |
| 20260903213905 | 103 | 0.0 | 0.0 | 0.00 | 0.00 | 0.00 | 24 | 1009.4 | |
| 20260903212802 | 103 | 0.0 | 0.0 | 0.00 | 0.00 | 0.00 | 24 | 1009.7 | |
| 20260903211627 | 103 | 0.0 | 0.0 | 0.00 | 0.00 | 0.00 | 24 | 1010.0 | |
| 20260903210626 | 103 | 0.0 | 0.0 | 0.00 | 0.00 | 0.00 | 24 | 1010.0 | |
| 20260903205625 | 102 | 0.0 | 0.0 | 0.00 | 0.00 | 0.00 | 25 | 1010.4 | |
| 20260903204625 | 103 | 0.0 | 0.0 | 0.00 | 0.00 | 0.00 | 25 | 1010.4 | |
| 20260903203624 | 102 | 0.0 | 0.0 | 0.00 | 0.00 | 0.00 | 25 | 1010.4 | |
| 20260903202552 | 102 | 0.0 | 0.0 | 0.00 | 0.00 | 0.00 | 25 | 1010.7 | |
| 20260903201551 | 102 | 0.0 | 0.0 | 0.00 | 0.00 | 0.00 | 25 | 1011.1 | |
| 20260903200550 | 101 | 0.0 | 0.0 | 0.00 | 0.00 | 0.00 | 25 | 1011.0 | |
| 20260903195548 | 101 | 0.0 | 0.0 | 0.00 | 0.00 | 0.00 | 25 | 1011.0 | |
| 20260903194547 | 100 | 0.0 | 0.0 | 0.00 | 0.00 | 0.00 | 28 | 1011.0 | |
| 20260903193546 | 99 | 0.0 | 0.0 | 0.00 | 0.00 | 0.00 | 28 | 1011.0 | |
| 20260903192545 | 100 | 0.0 | 0.0 | 0.00 | 0.00 | 0.00 | 28 | 1011.4 | |
| 20260903191544 | 100 | 0.0 | 0.0 | 0.00 | 0.00 | 0.00 | 28 | 1011.7 | |
| 20260903190543 | 100 | 0.0 | 0.0 | 0.00 | 0.00 | 0.00 | 28 | 1011.7 | |
| 20260903185542 | 99 | 0.0 | 0.0 | 0.00 | 0.00 | 0.00 | 29 | 1012.1 | |
| 20260903184542 | 99 | 0.0 | 0.0 | 0.00 | 0.00 | 0.00 | 28 | 1012.1 | |
| 20260903183541 | 99 | 0.0 | 0.0 | 0.00 | 0.00 | 0.00 | 28 | 1012.4 | |
| 20260903182540 | 99 | 0.0 | 0.0 | 0.00 | 0.00 | 0.00 | 28 | 1012.4 | |
| 20260903181507 | 99 | 0.0 | 0.0 | 0.00 | 0.00 | 0.00 | 28 | 1012.8 | |
| 20260903180506 | 98 | 0.0 | 0.0 | 0.00 | 0.00 | 0.00 | 30 | 1012.8 | |
| 20260903175505 | 97 | 0.0 | 0.0 | 0.00 | 0.00 | 0.00 | 30 | 1012.8 | |
| 20260903174433 | 97 | 0.0 | 0.0 | 0.00 | 0.00 | 0.00 | 32 | 1013.1 | |
| 20260903173432 | 97 | 0.0 | 0.0 | 0.00 | 0.00 | 0.00 | 32 | 1013.1 | |
| 20260903172431 | 96 | 0.0 | 0.0 | 0.00 | 0.00 | 0.00 | 34 | 1013.1 | |
| 20260903171430 | 96 | 0.0 | 0.0 | 0.00 | 0.00 | 0.00 | 35 | 1013.1 | |
| 20260903170430 | 95 | 0.0 | 0.0 | 0.00 | 0.00 | 0.00 | 36 | 1013.1 | |
| 20260903165429 | 94 | 0.0 | 0.0 | 0.00 | 0.00 | 0.00 | 36 | 1013.1 | |
| 20260903164427 | 94 | 0.0 | 0.0 | 0.00 | 0.00 | 0.00 | 36 | 1013.1 | |
| 20260903163427 | 94 | 0.0 | 0.0 | 0.00 | 0.00 | 0.00 | 37 | 1013.1 | |
| 20260903162425 | 94 | 0.0 | 0.0 | 0.00 | 0.00 | 0.00 | 37 | 1013.4 | |
| 20260903161425 | 94 | 0.0 | 0.0 | 0.00 | 0.00 | 0.00 | 37 | 1013.1 | |
| 20260903160424 | 93 | 0.0 | 0.0 | 0.00 | 0.00 | 0.00 | 38 | 1013.1 | |
| 20260903155321 | 93 | 0.0 | 0.0 | 0.00 | 0.00 | 0.00 | 39 | 1013.4 | |
| 20260903154320 | 92 | 0.0 | 0.0 | 0.00 | 0.00 | 0.00 | 40 | 1013.4 | |
| 20260903153319 | 92 | 0.0 | 0.0 | 0.00 | 0.00 | 0.00 | 40 | 1013.4 | |
| 20260903152318 | 91 | 0.0 | 0.0 | 0.00 | 0.00 | 0.00 | 40 | 1013.4 | |
| 20260903151318 | 90 | 0.0 | 0.0 | 0.00 | 0.00 | 0.00 | 42 | 1013.4 | |
| 20260903150317 | 90 | 0.0 | 0.0 | 0.00 | 0.00 | 0.00 | 42 | 1013.3 | |
| 20260903145316 | 89 | 0.0 | 0.0 | 0.00 | 0.00 | 0.00 | 43 | 1013.3 | |
| 20260903144315 | 89 | 0.0 | 0.0 | 0.00 | 0.00 | 0.00 | 43 | 1013.3 | |
| 20260903143314 | 89 | 0.0 | 0.0 | 0.00 | 0.00 | 0.00 | 43 | 1013.3 | |
| 20260903142313 | 88 | 0.0 | 0.0 | 0.00 | 0.00 | 0.00 | 44 | 1013.3 | |
| 20260903141312 | 88 | 0.0 | 0.0 | 0.00 | 0.00 | 0.00 | 44 | 1013.3 | |
| 20260903140311 | 86 | 0.0 | 0.0 | 0.00 | 0.00 | 0.00 | 44 | 1012.9 | |
| 20260903135311 | 85 | 0.0 | 0.0 | 0.00 | 0.00 | 0.00 | 45 | 1012.8 | |
| 20260903134310 | 84 | 0.0 | 0.0 | 0.00 | 0.00 | 0.00 | 45 | 1012.5 | |
| 20260903133309 | 84 | 0.0 | 0.0 | 0.00 | 0.00 | 0.00 | 45 | 1012.5 | |
| 20260903132308 | 84 | 0.0 | 0.0 | 0.00 | 0.00 | 0.00 | 44 | 1012.1 | |
| 20260903131307 | 84 | 0.0 | 0.0 | 0.00 | 0.00 | 0.00 | 44 | 1012.2 | |
| 20260903130306 | 84 | 0.0 | 0.0 | 0.00 | 0.00 | 0.00 | 45 | 1012.2 | |
| 20260903125306 | 84 | 0.0 | 0.0 | 0.00 | 0.00 | 0.00 | 44 | 1012.2 | |
| 20260903124233 | 85 | 0.0 | 0.0 | 0.00 | 0.00 | 0.00 | 44 | 1011.9 | |
| 20260903123233 | 85 | 0.0 | 0.0 | 0.00 | 0.00 | 0.00 | 44 | 1011.9 | |
| 20260903122231 | 85 | 0.0 | 0.0 | 0.00 | 0.00 | 0.00 | 43 | 1011.9 | |
| 20260903121128 | 85 | 0.0 | 0.0 | 0.00 | 0.00 | 0.00 | 42 | 1011.9 | |
| 20260903120057 | 85 | 0.0 | 0.0 | 0.00 | 0.00 | 0.00 | 42 | 1011.6 | |
| 20260903115055 | 86 | 0.0 | 0.0 | 0.00 | 0.00 | 0.00 | 41 | 1011.6 | |
| 20260903114055 | 86 | 0.0 | 0.0 | 0.00 | 0.00 | 0.00 | 40 | 1011.6 | |
| 20260903113054 | 85 | 0.0 | 0.0 | 0.00 | 0.00 | 0.00 | 40 | 1011.6 | |
| 20260903112053 | 85 | 0.0 | 0.0 | 0.00 | 0.00 | 0.00 | 39 | 1011.6 | |
| 20260903111052 | 86 | 0.0 | 0.0 | 0.00 | 0.00 | 0.00 | 36 | 1011.6 | |
| 20260903110051 | 86 | 0.0 | 0.0 | 0.00 | 0.00 | 0.00 | 35 | 1011.6 | |
| 20260903105049 | 86 | 0.0 | 0.0 | 0.00 | 0.00 | 0.00 | 35 | 1011.3 | |
| 20260903104048 | 87 | 0.0 | 0.0 | 0.00 | 0.00 | 0.00 | 33 | 1011.3 | |
| 20260903103048 | 87 | 0.0 | 0.0 | 0.00 | 0.00 | 0.00 | 32 | 1011.6 | |
| 20260903102047 | 87 | 0.0 | 0.0 | 0.00 | 0.00 | 0.00 | 32 | 1011.6 | |
| 20260903101015 | 88 | 0.0 | 0.0 | 0.00 | 0.00 | 0.00 | 30 | 1011.3 | |
| 20260903095943 | 88 | 0.0 | 0.0 | 0.00 | 0.00 | 0.00 | 30 | 1011.7 | |
| 20260903094941 | 88 | 0.0 | 0.0 | 0.00 | 0.00 | 0.00 | 29 | 1011.7 | |
| 20260903093940 | 88 | 0.0 | 0.0 | 0.00 | 0.00 | 0.00 | 28 | 1011.7 | |
| 20260903092939 | 89 | 0.0 | 0.0 | 0.00 | 0.00 | 0.00 | 26 | 1011.6 | |
| 20260903091939 | 88 | 0.0 | 0.0 | 0.00 | 0.00 | 0.00 | 25 | 1011.7 | |
| 20260903090907 | 88 | 0.0 | 0.0 | 0.00 | 0.00 | 0.00 | 25 | 1011.7 | |
| 20260903085906 | 88 | 0.0 | 0.0 | 0.00 | 0.00 | 0.00 | 25 | 1011.7 | |
| 20260903084905 | 89 | 0.0 | 0.0 | 0.00 | 0.00 | 0.00 | 25 | 1011.3 | |
| 20260903081423 | 89 | 0.0 | 0.0 | 0.00 | 0.00 | 0.00 | 24 | 1011.4 | |
| 20260903080422 | 89 | 0.0 | 0.0 | 0.00 | 0.00 | 0.00 | 24 | 1011.3 | |
| 20260903075421 | 89 | 0.0 | 0.0 | 0.00 | 0.00 | 0.00 | 25 | 1011.3 | |
| 20260903074420 | 90 | 0.0 | 0.0 | 0.00 | 0.00 | 0.00 | 24 | 1011.3 | |
| 20260903073348 | 90 | 0.0 | 0.0 | 0.00 | 0.00 | 0.00 | 25 | 1011.3 | |
| 20260903072348 | 90 | 0.0 | 0.0 | 0.00 | 0.00 | 0.00 | 25 | 1011.4 | |
| 20260903071347 | 91 | 0.0 | 0.0 | 0.00 | 0.00 | 0.00 | 26 | 1011.4 | |
| 20260903070346 | 91 | 0.0 | 0.0 | 0.00 | 0.00 | 0.00 | 26 | 1011.4 | |
| 20260903065314 | 91 | 0.0 | 0.0 | 0.00 | 0.00 | 0.00 | 27 | 1011.4 |